Regional Weather Roundup
Issued by NWS Goodland, KS

Home | Current Version | Previous Version | Graphics & Text | Print | Product List | Glossary On
Versions: 1 2 3 4 5 6 7 8 9 10 11 12 13 14 15 16 17 18 19 20 21 22 23 24 25 26 27 28 29 30 31 32 33 34 35 36 37 38 39 40 41 42 43 44 45 46 47 48 49 50
000
ASUS43 KGLD 290359
RWRGLD

GOODLAND FORECAST AREA HOURLY WEATHER ROUNDUP
NATIONAL WEATHER SERVICE GOODLAND KS
1000 PM MDT THU MAY 28 2015

...OFFICIAL OBSERVATIONS...

CITY           SKY/WX    TMP DP  RH WIND       PRES   REMARKS
GOODLAND KS    CLOUDY    55  52  89 E7        29.99F
HILL CITY KS   CLOUDY    58  56  93 CALM      29.94F
IMPERIAL NEB   CLOUDY    56  51  84 NW9       29.99R
MCCOOK NEB     CLOUDY    56  54  93 SW5       29.93S
AKRON CO       LGT RAIN  53  49  86 N22       30.07S
BURLINGTON CO  CLOUDY    56  49  77 E7        30.01S
LIMON CO       CLOUDY    52  49  89 NW14      30.14R
$$

...UNOFFICIAL OBSERVATIONS...

CITY           SKY/WX    TMP DP  RH WIND       PRES   REMARKS
COLBY KS       CLEAR     59  55  88 NE6       29.98F
LENORA KS        N/A     60  32  34 MISG        N/A
NORTON KS      CLEAR     59  48  67 E6        29.93F
KIT CARSON CO    N/A     56  52  87 MISG        N/A
$$


USA.gov is the U.S. government's official web portal to all federal, state and local government web resources and services.